sat.trackr.live / text

‹ back to catalog

IRIDIUM 158

NORAD 43571 · 2018-061C

PAYLOAD ACTIVE UNKNOWN

§ Identity

Operator
Country
US
Launch date
2018-07-25
Launch site
AFWTR
Launch vehicle
Mass (kg)
RCS (m²)

Purposes: comms

External: N2YO · Heavens-Above · Gunter

§ Orbital elements

Epoch: 2026-09-12T23:05:46.506912Z

Period
100.40 min
Inclination
86.4003°
Eccentricity
0.0002182
Mean motion
14.34217250 rev/d
Perigee alt
776.1 km
Apogee alt
779.2 km
Semi-major
7,155.8 km
B*
2.3514e-5
RAAN
20.0454°
Arg perigee
92.7679°
Mean anomaly
267.3766°
Rev number
42,594

§ Raw data

IRIDIUM 1581 43571U 18061C   26255.96234383  .00000086  00000+0  23514-4 0  99962 43571  86.4003  20.0454 0002182  92.7679 267.3766 14.34217250425941

JSON: /api/v1/satellites/43571 · /tle

For live sub-satellite position, see the globe view (requires WebGL).

§ Visibility from observer

Set your observer location to see the next 7 days of passes ≥ 10°. The values pass through the URL so the page stays shareable.

No JS? Fill the form by hand. The geolocation button needs JavaScript.